This demonstration page uses our WeatherBlox Daily Observations layout. Learn more.

Left ArrowRight Arrow

Hourly Observations for September 30, 2022

Temp ( °F °C ) Dew Point ( °F °C ) Humidity (%) Winds ( mph kmh ) Pressure ( in mb ) Visibility ( mi km ) Precip ( " mm )
12:51 am 00:51 Mostly Clear 68 20 42 5.6 39 39 Calm 29.89 1012 10 16 0.00 0.00
1:51 am 01:51 Clear 68 20 41 5 37 37 E 7 11 29.88 1012 10 16 0.00 0.00
2:51 am 02:51 Clear 67 19.4 40 4.4 37 37 ESE 7 11 29.88 1012 10 16 0.00 0.00
3:51 am 03:51 Clear 67 19.4 39 3.9 36 36 ESE 8 13 29.88 1012 10 16 0.00 0.00
4:51 am 04:51 Cloudy 69 20.6 39 3.9 33 33 ESE 12 19 29.88 1012 10 16 0.00 0.00
5:51 am 05:51 Mostly Clear 68 20 39 3.9 35 35 ESE 8 13 29.89 1012 10 16 0.00 0.00
6:51 am 06:51 Sunny 68 20 39 3.9 35 35 ESE 10 17 29.91 1013 10 16 0.00 0.00
7:51 am 07:51 Sunny 72 22.2 39 3.9 30 30 E 10 17 29.91 1013 10 16 0.00 0.00
8:51 am 08:51 Sunny 76 24.4 39 3.9 26 26 SE 12 19 29.91 1013 10 16 0.00 0.00
9:51 am 09:51 Sunny 79 26.1 42 5.6 27 27 SSE 7 11 29.90 1013 10 16 0.00 0.00
10:51 am 10:51 Sunny 81 27.2 43 6.1 26 26 SSE 8 13 29.88 1012 10 16 0.00 0.00
11:51 am 11:51 Sunny 84 28.9 41 5 22 22 SE 8 13 29.84 1011 10 16 0.00 0.00
12:51 pm 12:51 Sunny 86 30 42 5.6 21 21 S 8 13 29.80 1009 10 16 0.00 0.00
1:51 pm 13:51 Sunny 88 31.1 42 5.6 20 20 VRB 3 6 29.75 1008 10 16 0.00 0.00
2:51 pm 14:51 Sunny 87 30.6 43 6.1 21 21 S 7 11 29.72 1007 10 16 0.00 0.00
3:51 pm 15:51 Sunny 90 32.2 44 6.7 20 20 Calm 29.69 1006 10 16 0.00 0.00
4:51 pm 16:51 Sunny 87 30.6 44 6.7 22 22 VRB 3 6 29.68 1005 10 16 0.00 0.00
5:51 pm 17:51 Sunny 85 29.4 44 6.7 24 24 SW 5 7 29.69 1005 10 16 0.00 0.00
6:51 pm 18:51 Clear 80 26.7 44 6.7 28 28 W 3 6 29.72 1007 10 16 0.00 0.00
7:51 pm 19:51 Mostly Cloudy 78 25.6 52 11.1 40 40 SSE 22 35 29.75 1008 10 16 0.00 0.00
8:51 pm 20:51 Partly Cloudy 75 23.9 53 11.7 46 46 E 9 15 29.75 1008 10 16 0.00 0.00
9:51 pm 21:51 Clear 74 23.3 54 12.2 50 50 E 13 20 29.76 1008 10 16 0.00 0.00
10:51 pm 22:51 Mostly Cloudy 74 23.3 54 12.2 50 50 E 12 19 29.77 1008 10 16 0.00 0.00
11:51 pm 23:51 Clear 73 22.8 53 11.7 50 50 E 9 15 29.78 1009 10 16 0.00 0.00

Powered by AerisWeather